Location: Unspecified
(0.0000°N, 0.0000°E)
Time: 15:47:57
(UTC+02:00)

BREEZE-M DEB (TANK) - Visible Passes

Search period start: 20 April 2014 00:00
Search period end: 30 April 2014 00:00
Orbit: 342 x 16436 km, 49.5° (Epoch: 19 April)

Date Brightness Start Highest point End Pass type
(mag) Time Alt. Az. Time Alt. Az. Time Alt. Az.
20 Apr 8.0 03:44:28 31° S 03:44:28 31° S 05:20:42 10° SE visible
21 Apr 8.1 04:33:03 25° SSW 04:41:00 25° SSW 07:35:37 10° ESE visible
22 Apr 8.3 05:21:36 16° SW 07:48:34 26° SE 08:53:06 10° E visible
23 Apr 8.3 01:12:24 18° SSE 01:12:24 18° SSE 01:25:27 10° SE visible
23 Apr 8.4 06:15:50 10° SW 09:05:00 38° SE 09:53:18 10° ENE visible
24 Apr 8.2 02:00:53 25° SSE 02:00:53 25° SSE 02:30:33 10° SSE visible
24 Apr 8.7 07:19:27 10° SSW 10:10:05 52° SE 10:47:59 10° ENE visible
25 Apr 8.2 02:49:20 28° S 02:49:20 28° S 03:45:07 10° SSE visible
26 Apr 8.2 03:37:45 26° SSW 03:37:45 26° SSW 05:49:59 10° SE visible
27 Apr 8.3 04:26:08 21° SSW 04:46:00 23° S 07:43:22 10° ESE visible
28 Apr 8.4 05:14:28 12° SW 07:53:35 31° SE 08:49:57 10° E visible
29 Apr 8.4 01:05:06 18° SSE 01:05:06 18° SSE 01:18:10 10° SSE visible
29 Apr 8.6 06:12:39 10° SSW 09:01:47 45° SE 09:46:52 10° ENE visible
